• En Colombia
  • Lista de países
  • Para 7 días
  • Temperatura del agua
  • El tiempo en el mapa
  • Informadores
  • user-avatar
    Iniciar sesión

    Tiempo cada hora Constantine

    Hoy, 27 Febrero, Jueves

    Tiempo Temperatura Precipitaciones Viento Presión Humedad
    00:00 +7°C° 0 mm 1 mps 711 mmHg 94%
    01:00 +7°C° 0 mm 1 mps 711 mmHg 93%
    02:00 +7°C° 0 mm 1 mps 711 mmHg 92%
    03:00 +7°C° 0 mm 1 mps 710 mmHg 91%
    04:00 +6°C° 0 mm 1 mps 711 mmHg 90%
    05:00 +6°C° 0 mm 1 mps 711 mmHg 89%
    06:00 +6°C° 0 mm 1 mps 711 mmHg 88%
    07:00 +8°C° 0 mm 1 mps 712 mmHg 78%
    08:00 +9°C° 0 mm 2 mps 712 mmHg 68%
    09:00 +12°C° 0 mm 2 mps 713 mmHg 58%
    10:00 +13°C° 0 mm 2 mps 713 mmHg 52%
    11:00 +15°C° 0 mm 2 mps 713 mmHg 45%
    12:00 +16°C° 0 mm 3 mps 713 mmHg 39%
    13:00 +16°C° 0 mm 3 mps 713 mmHg 39%
    14:00 +17°C° 0 mm 3 mps 712 mmHg 39%
    15:00 +17°C° 0 mm 4 mps 712 mmHg 39%
    16:00 +14°C° 0 mm 3 mps 712 mmHg 49%
    17:00 +13°C° 0 mm 2 mps 712 mmHg 59%
    18:00 +11°C° 0 mm 1 mps 711 mmHg 69%
    19:00 +10°C° 0 mm 1 mps 712 mmHg 71%
    20:00 +9°C° 0 mm 1 mps 712 mmHg 73%
    21:00 +8°C° 0 mm 0 mps 712 mmHg 75%
    22:00 +9°C° 0 mm 1 mps 712 mmHg 75%
    23:00 +9°C° 0 mm 1 mps 712 mmHg 74%

    Mañana, 28 Febrero, Viernes

    Tiempo Temperatura Precipitaciones Viento Presión Humedad
    00:00 +9°C° 0 mm 1 mps 712 mmHg 74%
    01:00 +8°C° 0 mm 1 mps 712 mmHg 74%
    02:00 +7°C° 0 mm 2 mps 712 mmHg 74%
    03:00 +7°C° 0 mm 2 mps 711 mmHg 74%
    04:00 +7°C° 0 mm 2 mps 711 mmHg 73%
    05:00 +7°C° 0 mm 2 mps 711 mmHg 73%
    06:00 +7°C° 0 mm 2 mps 711 mmHg 73%
    07:00 +9°C° 0 mm 2 mps 712 mmHg 64%
    08:00 +13°C° 0 mm 2 mps 713 mmHg 55%
    09:00 +15°C° 0 mm 2 mps 714 mmHg 47%
    10:00 +17°C° 0 mm 2 mps 714 mmHg 42%
    11:00 +18°C° 0 mm 2 mps 714 mmHg 38%
    12:00 +19°C° 0 mm 2 mps 714 mmHg 33%
    13:00 +20°C° 0 mm 2 mps 713 mmHg 33%
    14:00 +20°C° 0 mm 2 mps 713 mmHg 33%
    15:00 +20°C° 0 mm 2 mps 713 mmHg 33%
    16:00 +19°C° 0 mm 1 mps 712 mmHg 43%
    17:00 +15°C° 0 mm 1 mps 712 mmHg 53%
    18:00 +12°C° 0 mm 1 mps 712 mmHg 63%
    19:00 +12°C° 0 mm 1 mps 712 mmHg 65%
    20:00 +11°C° 0 mm 1 mps 712 mmHg 67%
    21:00 +11°C° 0 mm 1 mps 712 mmHg 69%
    22:00 +11°C° 0 mm 1 mps 711 mmHg 64%
    23:00 +11°C° 0 mm 1 mps 711 mmHg 60%

    Pasado mañana, 29 Febrero, Sábado

    Tiempo Temperatura Precipitaciones Viento Presión Humedad
    00:00 +10°C° 0 mm 2 mps 711 mmHg 56%
    01:00 +9°C° 0 mm 2 mps 710 mmHg 53%
    02:00 +9°C° 0 mm 2 mps 710 mmHg 51%
    03:00 +9°C° 0 mm 2 mps 709 mmHg 48%
    04:00 +9°C° 0 mm 2 mps 709 mmHg 47%
    05:00 +9°C° 0 mm 2 mps 709 mmHg 47%
    06:00 +9°C° 0 mm 2 mps 709 mmHg 46%
    07:00 +12°C° 0 mm 3 mps 709 mmHg 44%
    08:00 +14°C° 0 mm 3 mps 710 mmHg 42%
    09:00 +18°C° 0 mm 3 mps 710 mmHg 39%
    10:00 +19°C° 0 mm 3 mps 710 mmHg 36%
    11:00 +21°C° 0 mm 4 mps 710 mmHg 33%
    12:00 +23°C° 0 mm 4 mps 710 mmHg 30%
    13:00 +23°C° 0 mm 4 mps 710 mmHg 31%
    14:00 +23°C° 0 mm 4 mps 710 mmHg 32%
    15:00 +23°C° 0 mm 4 mps 709 mmHg 33%
    16:00 +20°C° 0 mm 3 mps 709 mmHg 41%
    17:00 +17°C° 0 mm 2 mps 709 mmHg 49%
    18:00 +15°C° 0 mm 2 mps 708 mmHg 56%
    19:00 +14°C° 0 mm 2 mps 709 mmHg 56%
    20:00 +13°C° 0 mm 2 mps 709 mmHg 55%
    21:00 +13°C° 0 mm 1 mps 709 mmHg 55%
    22:00 +12°C° 0 mm 2 mps 709 mmHg 53%
    23:00 +12°C° 0 mm 2 mps 709 mmHg 52%

    1 Marzo, Domingo

    Tiempo Temperatura Precipitaciones Viento Presión Humedad
    00:00 +12°C° 0 mm 2 mps 709 mmHg 50%
    01:00 +12°C° 0 mm 2 mps 708 mmHg 51%
    02:00 +10°C° 0 mm 2 mps 708 mmHg 51%
    03:00 +10°C° 0 mm 2 mps 708 mmHg 52%
    04:00 +10°C° 0 mm 2 mps 708 mmHg 53%
    05:00 +10°C° 0 mm 1 mps 708 mmHg 55%
    06:00 +10°C° 0 mm 1 mps 708 mmHg 56%
    07:00 +12°C° 0 mm 2 mps 708 mmHg 52%
    08:00 +15°C° 0 mm 2 mps 709 mmHg 49%
    09:00 +17°C° 0 mm 2 mps 709 mmHg 45%
    10:00 +18°C° 0 mm 3 mps 709 mmHg 44%
    11:00 +19°C° 0 mm 4 mps 709 mmHg 43%
    12:00 +19°C° 0 mm 4 mps 709 mmHg 42%
    13:00 +19°C° 0 mm 4 mps 709 mmHg 47%
    14:00 +18°C° 0 mm 4 mps 708 mmHg 51%
    15:00 +17°C° 0 mm 4 mps 708 mmHg 56%
    16:00 +15°C° 0 mm 4 mps 708 mmHg 63%
    17:00 +13°C° 0 mm 3 mps 708 mmHg 70%
    18:00 +12°C° 0 mm 2 mps 708 mmHg 77%
    19:00 +12°C° 0 mm 2 mps 708 mmHg 78%
    20:00 +12°C° 0 mm 1 mps 709 mmHg 79%
    21:00 +11°C° 0 mm 1 mps 709 mmHg 81%
    22:00 +10°C° 0 mm 2 mps 709 mmHg 80%
    23:00 +10°C° 0 mm 2 mps 708 mmHg 79%

    2 Marzo, Lunes

    Tiempo Temperatura Precipitaciones Viento Presión Humedad
    00:00 +10°C° 0 mm 2 mps 708 mmHg 78%
    01:00 +10°C° 0 mm 2 mps 708 mmHg 76%
    02:00 +10°C° 0 mm 2 mps 707 mmHg 74%
    03:00 +10°C° 0 mm 2 mps 707 mmHg 72%
    04:00 +10°C° 0 mm 2 mps 707 mmHg 71%
    05:00 +10°C° 0 mm 2 mps 706 mmHg 70%
    06:00 +10°C° 0 mm 2 mps 706 mmHg 69%
    07:00 +12°C° 0 mm 3 mps 706 mmHg 63%
    08:00 +14°C° 0 mm 4 mps 706 mmHg 56%
    09:00 +16°C° 0 mm 5 mps 707 mmHg 50%
    10:00 +17°C° 0 mm 7 mps 706 mmHg 47%
    11:00 +20°C° 0 mm 8 mps 706 mmHg 44%
    12:00 +21°C° 0 mm 10 mps 705 mmHg 41%
    13:00 +19°C° 0 mm 10 mps 704 mmHg 42%
    14:00 +19°C° 0 mm 9 mps 703 mmHg 43%
    15:00 +18°C° 0 mm 9 mps 702 mmHg 45%
    16:00 +17°C° 0 mm 8 mps 702 mmHg 47%
    17:00 +16°C° 0 mm 8 mps 702 mmHg 49%
    18:00 +15°C° 0 mm 7 mps 701 mmHg 50%
    19:00 +12°C° 0.3 mm 7 mps 701 mmHg 60%
    20:00 +11°C° 0.3 mm 8 mps 702 mmHg 69%
    21:00 +9°C° 0.3 mm 8 mps 702 mmHg 78%
    22:00 +8°C° 0.4 mm 7 mps 702 mmHg 77%
    23:00 +8°C° 0.4 mm 7 mps 702 mmHg 76%

    3 Marzo, Martes

    Tiempo Temperatura Precipitaciones Viento Presión Humedad
    00:00 +7°C° 0.4 mm 6 mps 702 mmHg 75%
    01:00 +5°C° 0.1 mm 8 mps 702 mmHg 77%
    02:00 +5°C° 0.1 mm 9 mps 702 mmHg 79%
    03:00 +3°C° 0.1 mm 11 mps 702 mmHg 81%
    04:00 +3°C° 0.1 mm 10 mps 703 mmHg 82%
    05:00 +3°C° 0.1 mm 10 mps 703 mmHg 82%
    06:00 +3°C° 0.1 mm 9 mps 704 mmHg 82%
    07:00 +4°C° 0 mm 11 mps 705 mmHg 76%
    08:00 +4°C° 0 mm 12 mps 706 mmHg 71%
    09:00 +5°C° 0 mm 14 mps 706 mmHg 65%
    10:00 +7°C° 0.1 mm 13 mps 707 mmHg 63%
    11:00 +7°C° 0.1 mm 13 mps 707 mmHg 61%
    12:00 +8°C° 0.1 mm 13 mps 707 mmHg 59%
    13:00 +8°C° 0 mm 12 mps 707 mmHg 59%
    14:00 +8°C° 0 mm 12 mps 707 mmHg 59%
    15:00 +8°C° 0 mm 11 mps 707 mmHg 59%
    16:00 +6°C° 0 mm 9 mps 707 mmHg 64%
    17:00 +5°C° 0 mm 7 mps 708 mmHg 68%
    18:00 +5°C° 0 mm 5 mps 708 mmHg 73%
    19:00 +5°C° 0 mm 4 mps 708 mmHg 73%
    20:00 +4°C° 0 mm 4 mps 709 mmHg 72%
    21:00 +4°C° 0 mm 3 mps 709 mmHg 72%
    22:00 +4°C° 0 mm 3 mps 709 mmHg 72%
    23:00 +4°C° 0 mm 3 mps 709 mmHg 72%
    Mostrar más